This demonstration page uses our WeatherBlox Daily Observations layout. Learn more.

Left ArrowRight Arrow

Hourly Observations for February 28, 2017

Temp ( °F °C ) Dew Point ( °F °C ) Humidity (%) Winds ( mph kmh ) Pressure ( in mb ) Visibility ( mi km ) Precip ( " mm )
12:51 am 00:51 Clear 52 11.1 40 4.4 64 64 N N/A 29.79 1009 10 16 N/A
1:51 am 01:51 Clear 51 10.6 40 4.4 66 66 NE 3 6 29.78 1009 10 16 N/A
2:51 am 02:51 Clear 53 11.7 41 5 64 64 SE 6 9 29.77 1008 10 16 N/A
3:51 am 03:51 Clear 52 11.1 39 3.9 61 61 NE 6 9 29.75 1007 10 16 N/A
4:51 am 04:51 Clear 52 11.1 36 2.2 55 55 N N/A 29.75 1007 10 16 N/A
5:51 am 05:51 Clear 56 13.3 27 -2.8 33 33 W 9 15 29.75 1007 10 16 N/A
6:51 am 06:51 Sunny 54 12.2 30 -1.1 40 40 W 5 7 29.76 1008 10 16 N/A
7:51 am 07:51 Partly Cloudy 57 13.9 25 -3.9 29 29 WNW 16 26 29.79 1009 10 16 N/A
8:51 am 08:51 Mostly Sunny 57 13.9 35 1.7 44 44 NW 10 17 29.83 1010 10 16 N/A
9:51 am 09:51 Mostly Sunny 60 15.6 33 0.6 36 36 WNW 18 30 29.85 1011 10 16 N/A
10:51 am 10:51 Mostly Sunny 63 17.2 30 -1.1 29 29 W 12 19 29.84 1011 10 16 N/A
11:51 am 11:51 Mostly Cloudy 62 16.7 35 1.7 37 37 NW 31 50 29.85 1011 10 16 N/A
12:51 pm 12:51 Cloudy 60 15.6 39 3.9 46 46 NNW 23 37 29.88 1012 10 16 N/A
1:51 pm 13:51 Mostly Cloudy with Light Rain 55 12.8 45 7.2 69 69 NW 23 37 29.92 1013 10 16 N/A
2:51 pm 14:51 Partly Cloudy 55 12.8 42 5.6 62 62 NNW 29 46 29.93 1014 10 16 N/A
3:51 pm 15:51 Sunny 59 15 39 3.9 48 48 NW 22 35 29.92 1013 10 16 N/A
4:51 pm 16:51 Mostly Cloudy 56 13.3 39 3.9 53 53 WNW 16 26 29.95 1014 10 16 0.01 0.25
5:51 pm 17:51 Partly Cloudy 54 12.2 39 3.9 57 57 NW 9 15 29.98 1015 10 16 N/A
6:51 pm 18:51 Cloudy with Light Rain 49 9.4 45 7.2 86 86 W 9 15 30.04 1017 8 13 0.02 0.51
7:51 pm 19:51 Mostly Clear 48 8.9 45 7.2 89 89 NNE 6 9 30.04 1017 10 16 0.01 0.25
8:51 pm 20:51 Clear 46 7.8 43 6.1 89 89 N 8 13 30.06 1018 10 16 N/A
9:51 pm 21:51 Clear 45 7.2 41 5 86 86 NW 5 7 30.09 1019 10 16 N/A
10:51 pm 22:51 Clear 42 5.6 39 3.9 89 89 WNW 7 11 30.11 1020 10 16 N/A
11:51 pm 23:51 Clear 43 6.1 39 3.9 86 86 NNE 6 9 30.12 1020 10 16 N/A

Powered by AerisWeather